GW4411 Weather Reports


Display with metric or nautical units.
time (UTC)temp
F
wind
direction
speed
MPH
gust
MPH
rain 1hr
in
rain 24hr
in
rain mn
in
humidity
%
barometer
mb
20260505093604 68 0 0.0 0.0 0.00 0.00 0.00 91 1016.6
20260505092704 69 0 0.0 0.0 0.00 0.00 0.00 91 1016.7
20260505091804 69 0 0.0 0.0 0.00 0.00 0.00 91 1016.8
20260505090904 69 0 0.0 0.0 0.00 0.00 0.00 90 1016.5
20260505090224 69 0 0.0 0.0 0.00 0.00 0.00 90 1016.5
20260505085408 70 0 0.0 0.0 0.00 0.00 0.00 90 1016.5
20260505084505 70 23 0.0 1.0 0.00 0.00 0.00 89 1016.4
20260505083610 70 0 0.0 0.0 0.00 0.00 0.00 88 1016.3
20260505082708 70 0 0.0 0.0 0.00 0.00 0.00 88 1015.9
20260505082019 71 0 0.0 0.0 0.00 0.00 0.00 88 1016.0
20260505080904 71 0 0.0 0.0 0.00 0.00 0.00 87 1015.6
20260505080219 71 0 0.0 0.0 0.00 0.00 0.00 86 1015.5
20260505075403 72 0 0.0 0.0 0.00 0.00 0.00 85 1015.4
20260505074506 72 0 0.0 0.0 0.00 0.00 0.00 84 1015.5
20260505073604 72 0 0.0 0.0 0.00 0.00 0.00 84 1015.7
20260505072703 73 55 0.0 1.0 0.00 0.00 0.00 83 1015.5
20260505071805 73 58 0.0 1.0 0.00 0.00 0.00 82 1015.3
20260505070904 73 55 1.0 5.0 0.00 0.00 0.00 81 1015.2
20260505070006 74 43 2.0 4.0 0.00 0.00 0.00 80 1015.1
20260505065404 74 37 2.0 4.0 0.00 0.00 0.00 80 1015.2
20260505064505 74 37 1.0 4.0 0.00 0.00 0.00 79 1015.1
20260505063611 75 38 1.0 5.0 0.00 0.00 0.00 78 1015.0
20260505062918 75 48 1.0 4.0 0.00 0.00 0.00 78 1015.0
20260505062022 75 32 2.0 7.0 0.00 0.00 0.00 78 1015.1
20260505060904 76 28 2.0 4.0 0.00 0.00 0.00 77 1015.0
20260505060007 76 28 2.0 7.0 0.00 0.00 0.00 76 1015.0
20260505055408 76 32 2.0 7.0 0.00 0.00 0.00 76 1014.9
20260505054510 77 33 3.0 5.0 0.00 0.00 0.00 76 1014.7
20260505053604 77 40 1.0 4.0 0.00 0.00 0.00 75 1014.8
20260505052922 77 21 1.0 6.0 0.00 0.00 0.00 76 1014.5
20260505051808 78 24 2.0 5.0 0.00 0.00 0.00 76 1014.7
20260505050903 78 35 3.0 5.0 0.00 0.00 0.00 74 1014.8
20260505040909 80 99 1.0 4.0 0.00 0.00 0.00 70 1014.4
20260505040006 80 56 0.0 2.0 0.00 0.00 0.00 70 1014.3
20260505035405 80 101 1.0 2.0 0.00 0.00 0.00 69 1014.4
20260505034719 81 48 1.0 5.0 0.00 0.00 0.00 68 1014.4
20260505033818 81 341 1.0 5.0 0.00 0.00 0.00 67 1014.3
20260505032703 79 64 2.0 4.0 0.00 0.00 0.00 71 1014.5
20260505031808 80 28 2.0 6.0 0.00 0.00 0.00 69 1014.5
20260505030909 81 59 1.0 4.0 0.00 0.00 0.00 70 1014.4
20260505030005 80 81 2.0 5.0 0.00 0.00 0.00 71 1014.5
20260505025418 81 118 3.0 5.0 0.00 0.00 0.00 69 1014.5
20260505024510 81 75 1.0 4.0 0.00 0.00 0.00 69 1014.6
20260505023604 80 47 0.0 1.0 0.00 0.00 0.00 71 1014.7
20260505022705 79 43 1.0 4.0 0.00 0.00 0.00 72 1014.9
20260505021804 78 176 2.0 5.0 0.00 0.00 0.00 72 1015.0
20260505021124 79 129 2.0 5.0 0.00 0.00 0.00 71 1015.4
20260505020005 79 100 1.0 4.0 0.00 0.00 0.00 72 1015.4
20260505015404 79 55 1.0 5.0 0.00 0.00 0.00 70 1015.4
20260505014505 80 4 2.0 4.0 0.00 0.00 0.00 70 1015.7
20260505013817 79 47 1.0 4.0 0.00 0.00 0.00 70 1015.6
20260505012705 79 38 2.0 4.0 0.00 0.00 0.00 70 1015.9
20260505011804 78 57 1.0 4.0 0.00 0.00 0.00 72 1016.0
20260505010904 79 107 1.0 2.0 0.00 0.00 0.00 72 1016.1
20260505010010 79 235 0.0 1.0 0.00 0.00 0.00 74 1016.4
20260505005404 77 210 1.0 4.0 0.00 0.00 0.00 75 1016.5
20260505004724 78 189 2.0 4.0 0.00 0.00 0.00 74 1016.6
20260505003604 80 172 1.0 5.0 0.00 0.00 0.00 72 1016.6
20260505002706 79 80 1.0 4.0 0.00 0.00 0.00 74 1016.8
20260505001804 78 54 1.0 4.0 0.00 0.00 0.00 74 1016.9
20260505000912 78 271 1.0 5.0 0.00 0.00 0.00 77 1017.0
20260505000006 76 165 1.0 4.0 0.00 0.00 0.00 80 1017.0
20260504235404 76 202 0.0 2.0 0.00 0.00 0.00 80 1017.0
20260504234510 74 167 1.0 4.0 0.00 0.00 0.00 82 1017.1
20260504233819 74 181 2.0 5.0 0.00 0.00 0.00 83 1017.3
20260504232704 74 187 0.0 4.0 0.00 0.00 0.00 84 1017.1
20260504231818 74 207 1.0 5.0 0.00 0.01 0.00 83 1017.3
20260504230904 74 181 0.0 4.0 0.00 0.01 0.00 85 1017.3
20260504230011 74 161 1.0 4.0 0.00 0.01 0.00 88 1017.2
20260504225404 73 149 1.0 4.0 0.00 0.01 0.00 92 1017.3
20260504224505 70 204 1.0 5.0 0.00 0.01 0.00 97 1017.2
20260504223608 69 207 1.0 6.0 0.00 0.01 0.00 98 1017.3
20260504222708 68 207 1.0 5.0 0.00 0.01 0.00 98 1017.3
20260504222024 68 206 1.0 4.0 0.00 0.01 0.00 98 1017.2
20260504220903 68 214 0.0 2.0 0.00 0.01 0.00 98 1017.2
20260504220005 67 233 0.0 1.0 0.00 0.01 0.00 98 1017.2
20260504215619 67 246 0.0 1.0 0.00 0.01 0.00 98 1017.2
20260504214733 66 257 1.0 2.0 0.00 0.01 0.00 98 1017.1
20260504213608 65 262 0.0 1.0 0.00 0.01 0.00 98 1017.2
20260504212711 64 0 0.0 0.0 0.00 0.01 0.00 98 1017.1
20260504211804 63 0 0.0 0.0 0.00 0.02 0.00 98 1017.1
20260504210904 62 0 0.0 0.0 0.00 0.04 0.00 98 1017.0
20260504210006 62 0 0.0 0.0 0.00 0.06 0.00 97 1016.9
20260504204514 61 0 0.0 0.0 0.00 0.06 0.00 97 1016.6
20260504203817 61 0 0.0 0.0 0.00 0.06 0.00 97 1016.6
20260504202920 61 265 0.0 2.0 0.00 0.06 0.00 97 1016.6
20260504201812 61 265 0.0 1.0 0.00 0.06 0.00 97 1016.6
20260504200909 61 0 0.0 0.0 0.00 0.06 0.00 97 1016.5
20260504200005 61 0 0.0 0.0 0.00 0.06 0.00 97 1016.3
20260504195409 61 0 0.0 0.0 0.00 0.06 0.00 97 1016.3
20260504194505 62 0 0.0 0.0 0.00 0.06 0.00 97 1016.1
20260504193823 62 0 0.0 0.0 0.00 0.06 0.00 97 1016.1
20260504192704 62 0 0.0 0.0 0.00 0.06 0.00 97 1016.0
20260504191806 62 0 0.0 0.0 0.00 0.06 0.00 97 1015.9
20260504191117 62 0 0.0 0.0 0.00 0.06 0.00 97 1015.9
20260504190006 62 264 0.0 1.0 0.00 0.06 0.00 97 1015.9
20260504185404 62 0 0.0 0.0 0.00 0.06 0.00 97 1015.8
20260504184511 62 264 0.0 1.0 0.00 0.06 0.00 97 1015.9
20260504183609 62 264 0.0 1.0 0.00 0.06 0.00 97 1015.8
20260504182704 62 0 0.0 0.0 0.00 0.06 0.00 97 1015.8
20260504181803 62 0 0.0 0.0 0.00 0.06 0.00 97 1015.6
20260504180909 62 0 0.0 0.0 0.00 0.06 0.00 97 1015.5
20260504180005 63 0 0.0 0.0 0.00 0.06 0.00 97 1015.5
20260504175404 62 0 0.0 0.0 0.00 0.06 0.00 97 1015.5
20260504174505 63 0 0.0 0.0 0.00 0.06 0.00 97 1015.5
20260504173603 63 0 0.0 0.0 0.00 0.06 0.00 96 1015.6
20260504172704 63 0 0.0 0.0 0.00 0.06 0.00 97 1015.7
20260504171818 63 0 0.0 0.0 0.00 0.06 0.00 97 1015.7
20260504170903 64 0 0.0 0.0 0.00 0.06 0.00 97 1015.6
20260504151118 63 0 0.0 0.0 0.00 0.06 0.00 96 1016.2
20260504140904 64 0 0.0 0.0 0.00 0.06 0.00 96 1016.7
20260504140220 65 0 0.0 0.0 0.00 0.06 0.00 96 1016.7